Location: Aubervilles
(48.9167°N, 2.3833°E)
Time: 12:18:33
(UTC+00:00)

Cosmos 2333 - Pass Details

Date: 03 February 2023
Orbit: 828 x 867 km, 70.9° (Epoch: 30 March)

Event Time Altitude Azimuth Distance (km) Brightness Sun altitude
Rises 18:32:53 0° 187° (S) 3,359 7.5 -17.0°
Reaches altitude 10° 18:35:23 10° 181° (S) 2,433 6.7 -17.4°
Maximum altitude 18:40:41 46° 109° (ESE) 1,113 4.4 -18.2°
Enters shadow 18:43:17 27° 54° (NE) 1,550 5.1 -18.7°
